This is the latest recevied weather packets stored in our database for station/object CE7LGA-10. If no packets are shown the sender has not sent any weather packets the latest 10 day(s).
| Time | Temp. | Humidity | Pressure | Rain* | Wind** | Luminosity | Snow |
|---|---|---|---|---|---|---|---|
| 1787455403 | 12.78° C | 66% | 1008.8 hPa | - | - | - | - |
| 1787454503 | 13.33° C | 67% | 1008.8 hPa | - | - | - | - |
| 1787453603 | 13.33° C | 67% | 1009.1 hPa | - | - | - | - |
| 1787452703 | 13.89° C | 67% | 1009.2 hPa | - | - | - | - |
| 1787451803 | 14.44° C | 67% | 1009.2 hPa | - | - | - | - |
| 1787450903 | 15° C | 67% | 1009.1 hPa | - | - | - | - |
| 1787450003 | 14.44° C | 67% | 1009.3 hPa | - | - | - | - |
| 1787449103 | 14.44° C | 69% | 1009.2 hPa | - | - | - | - |
| 1787448203 | 14.44° C | 67% | 1009.2 hPa | - | - | - | - |
| 1787447303 | 13.89° C | 69% | 1009.2 hPa | - | - | - | - |
| 1787446402 | 12.78° C | 67% | 1009.2 hPa | - | - | - | - |
| 1787445502 | 13.33° C | 66% | 1009.2 hPa | - | - | - | - |
| 1787444602 | 13.33° C | 67% | 1009.3 hPa | - | - | - | - |
| 1787443702 | 13.89° C | 69% | 1009.2 hPa | - | - | - | - |
| 1787442802 | 14.44° C | 68% | 1009.2 hPa | - | - | - | - |
| 1787441902 | 13.89° C | 67% | 1009.2 hPa | - | - | - | - |
| 1787441002 | 13.89° C | 67% | 1009.2 hPa | - | - | - | - |
| 1787440102 | 13.89° C | 66% | 1009.1 hPa | - | - | - | - |
| 1787439201 | 13.89° C | 65% | 1009 hPa | - | - | - | - |
| 1787438304 | 13.89° C | 66% | 1008.9 hPa | - | - | - | - |
| 1787437404 | 13.89° C | 65% | 1008.7 hPa | - | - | - | - |
| 1787436504 | 14.44° C | 65% | 1008.7 hPa | - | - | - | - |
| 1787435604 | 14.44° C | 66% | 1008.6 hPa | - | - | - | - |
| 1787434704 | 14.44° C | 64% | 1008.4 hPa | - | - | - | - |
| 1787433803 | 14.44° C | 64% | 1008.4 hPa | - | - | - | - |
* Rain since midnight (hover to see other rain measurements)
** Current wind speed in m/s (hover to see current wind gust speed)